Tiempo cada hora Abejuela

Hoy, 24 Octubre, Sábado

Tiempo Temperatura Precipitaciones Viento Presión Humedad
00:00 +5°C° 0 mm 2 mps 653 mmHg 79%
01:00 +5°C° 0 mm 2 mps 653 mmHg 79%
02:00 +4°C° 0 mm 2 mps 652 mmHg 80%
03:00 +4°C° 0 mm 2 mps 652 mmHg 80%
04:00 +4°C° 0 mm 2 mps 652 mmHg 79%
05:00 +3°C° 0 mm 2 mps 652 mmHg 79%
06:00 +3°C° 0 mm 2 mps 652 mmHg 78%
07:00 +5°C° 0 mm 2 mps 653 mmHg 69%
08:00 +7°C° 0 mm 2 mps 654 mmHg 60%
09:00 +9°C° 0 mm 2 mps 655 mmHg 51%
10:00 +11°C° 0 mm 3 mps 655 mmHg 46%
11:00 +13°C° 0 mm 4 mps 655 mmHg 41%
12:00 +14°C° 0 mm 4 mps 655 mmHg 36%
13:00 +14°C° 0 mm 5 mps 655 mmHg 36%
14:00 +15°C° 0 mm 5 mps 654 mmHg 36%
15:00 +15°C° 0 mm 6 mps 654 mmHg 36%
16:00 +13°C° 0 mm 5 mps 653 mmHg 42%
17:00 +11°C° 0 mm 4 mps 652 mmHg 48%
18:00 +8°C° 0 mm 4 mps 652 mmHg 53%
19:00 +9°C° 0 mm 3 mps 652 mmHg 57%
20:00 +8°C° 0 mm 3 mps 651 mmHg 61%
21:00 +7°C° 0 mm 3 mps 651 mmHg 64%
22:00 +7°C° 0 mm 3 mps 651 mmHg 67%
23:00 +5°C° 0 mm 3 mps 651 mmHg 69%

Mañana, 25 Octubre, Domingo

Tiempo Temperatura Precipitaciones Viento Presión Humedad
00:00 +5°C° 0 mm 3 mps 650 mmHg 71%
01:00 +5°C° 0 mm 3 mps 650 mmHg 72%
02:00 +4°C° 0 mm 3 mps 650 mmHg 72%
03:00 +4°C° 0 mm 3 mps 650 mmHg 73%
04:00 +4°C° 0 mm 3 mps 649 mmHg 74%
05:00 +4°C° 0 mm 3 mps 649 mmHg 75%
06:00 +3°C° 0 mm 4 mps 649 mmHg 77%
07:00 +5°C° 0 mm 5 mps 649 mmHg 69%
08:00 +7°C° 0 mm 6 mps 650 mmHg 61%
09:00 +9°C° 0 mm 7 mps 650 mmHg 54%
10:00 +10°C° 0 mm 8 mps 650 mmHg 49%
11:00 +11°C° 0 mm 8 mps 650 mmHg 45%
12:00 +13°C° 0 mm 9 mps 650 mmHg 41%
13:00 +13°C° 0 mm 9 mps 650 mmHg 43%
14:00 +12°C° 0 mm 9 mps 649 mmHg 46%
15:00 +12°C° 0 mm 9 mps 648 mmHg 48%
16:00 +11°C° 0 mm 7 mps 648 mmHg 54%
17:00 +10°C° 0 mm 6 mps 647 mmHg 60%
18:00 +9°C° 0 mm 5 mps 647 mmHg 66%
19:00 +8°C° 0 mm 6 mps 647 mmHg 70%
20:00 +8°C° 0 mm 6 mps 647 mmHg 74%
21:00 +8°C° 0 mm 7 mps 647 mmHg 78%
22:00 +7°C° 0.1 mm 6 mps 647 mmHg 76%
23:00 +7°C° 0.1 mm 6 mps 646 mmHg 74%

Pasado mañana, 26 Octubre, Lunes

Tiempo Temperatura Precipitaciones Viento Presión Humedad
00:00 +7°C° 0.1 mm 6 mps 646 mmHg 72%
01:00 +5°C° 0 mm 6 mps 646 mmHg 73%
02:00 +5°C° 0 mm 6 mps 646 mmHg 74%
03:00 +4°C° 0 mm 6 mps 646 mmHg 75%
04:00 +3°C° 0 mm 5 mps 646 mmHg 76%
05:00 +3°C° 0 mm 4 mps 646 mmHg 77%
06:00 +1°C° 0 mm 4 mps 646 mmHg 78%
07:00 +2°C° 0 mm 5 mps 646 mmHg 70%
08:00 +3°C° 0 mm 7 mps 647 mmHg 62%
09:00 +4°C° 0 mm 8 mps 648 mmHg 54%
10:00 +5°C° 0 mm 8 mps 648 mmHg 48%
11:00 +6°C° 0 mm 9 mps 648 mmHg 41%
12:00 +8°C° 0 mm 9 mps 648 mmHg 35%
13:00 +7°C° 0 mm 9 mps 648 mmHg 35%
14:00 +7°C° 0 mm 9 mps 648 mmHg 35%
15:00 +7°C° 0 mm 9 mps 648 mmHg 36%
16:00 +6°C° 0 mm 7 mps 648 mmHg 41%
17:00 +4°C° 0 mm 6 mps 648 mmHg 46%
18:00 +3°C° 0 mm 5 mps 648 mmHg 50%
19:00 +2°C° 0 mm 5 mps 648 mmHg 54%
20:00 +1°C° 0 mm 4 mps 648 mmHg 58%
21:00 +1°C° 0 mm 4 mps 649 mmHg 61%
22:00 +1°C° 0 mm 3 mps 649 mmHg 64%
23:00 +1°C° 0 mm 3 mps 649 mmHg 66%

, 27 Octubre, Martes

Tiempo Temperatura Precipitaciones Viento Presión Humedad
00:00 +1°C° 0 mm 3 mps 649 mmHg 68%
01:00 0°C° 0 mm 3 mps 648 mmHg 70%
02:00 0°C° 0 mm 3 mps 648 mmHg 72%
03:00 +1°C° 0 mm 2 mps 648 mmHg 74%
04:00 +1°C° 0 mm 2 mps 648 mmHg 73%
05:00 +1°C° 0 mm 2 mps 648 mmHg 73%
06:00 +1°C° 0 mm 2 mps 648 mmHg 73%
07:00 +1°C° 0 mm 3 mps 649 mmHg 65%
08:00 +3°C° 0 mm 3 mps 649 mmHg 58%
09:00 +5°C° 0 mm 3 mps 650 mmHg 50%
10:00 +7°C° 0 mm 4 mps 650 mmHg 45%
11:00 +8°C° 0 mm 4 mps 650 mmHg 40%
12:00 +10°C° 0 mm 5 mps 651 mmHg 35%
13:00 +10°C° 0 mm 5 mps 651 mmHg 36%
14:00 +12°C° 0 mm 5 mps 651 mmHg 37%
15:00 +12°C° 0 mm 5 mps 650 mmHg 39%
16:00 +11°C° 0 mm 4 mps 650 mmHg 46%
17:00 +8°C° 0 mm 4 mps 649 mmHg 54%
18:00 +7°C° 0 mm 3 mps 649 mmHg 62%
19:00 +5°C° 0 mm 3 mps 649 mmHg 65%
20:00 +6°C° 0 mm 2 mps 649 mmHg 67%
21:00 +5°C° 0 mm 2 mps 649 mmHg 70%
22:00 +5°C° 0 mm 2 mps 649 mmHg 71%
23:00 +5°C° 0 mm 2 mps 649 mmHg 73%

27 Octubre, Martes

Tiempo Temperatura Precipitaciones Viento Presión Humedad
00:00 +1°C° 0 mm 3 mps 649 mmHg 68%
01:00 0°C° 0 mm 3 mps 648 mmHg 70%
02:00 0°C° 0 mm 3 mps 648 mmHg 72%
03:00 +1°C° 0 mm 2 mps 648 mmHg 74%
04:00 +1°C° 0 mm 2 mps 648 mmHg 73%
05:00 +1°C° 0 mm 2 mps 648 mmHg 73%
06:00 +1°C° 0 mm 2 mps 648 mmHg 73%
07:00 +1°C° 0 mm 3 mps 649 mmHg 65%
08:00 +3°C° 0 mm 3 mps 649 mmHg 58%
09:00 +5°C° 0 mm 3 mps 650 mmHg 50%
10:00 +7°C° 0 mm 4 mps 650 mmHg 45%
11:00 +8°C° 0 mm 4 mps 650 mmHg 40%
12:00 +10°C° 0 mm 5 mps 651 mmHg 35%
13:00 +10°C° 0 mm 5 mps 651 mmHg 36%
14:00 +12°C° 0 mm 5 mps 651 mmHg 37%
15:00 +12°C° 0 mm 5 mps 650 mmHg 39%
16:00 +11°C° 0 mm 4 mps 650 mmHg 46%
17:00 +8°C° 0 mm 4 mps 649 mmHg 54%
18:00 +7°C° 0 mm 3 mps 649 mmHg 62%
19:00 +5°C° 0 mm 3 mps 649 mmHg 65%
20:00 +6°C° 0 mm 2 mps 649 mmHg 67%
21:00 +5°C° 0 mm 2 mps 649 mmHg 70%
22:00 +5°C° 0 mm 2 mps 649 mmHg 71%
23:00 +5°C° 0 mm 2 mps 649 mmHg 73%

28 Octubre, Miércoles

Tiempo Temperatura Precipitaciones Viento Presión Humedad
00:00 +5°C° 0 mm 2 mps 649 mmHg 74%
01:00 +5°C° 0 mm 2 mps 649 mmHg 75%
02:00 +5°C° 0 mm 2 mps 649 mmHg 75%
03:00 +5°C° 0 mm 2 mps 649 mmHg 76%
04:00 +5°C° 0 mm 2 mps 649 mmHg 77%
05:00 +5°C° 0 mm 2 mps 649 mmHg 78%
06:00 +5°C° 0 mm 2 mps 649 mmHg 79%
07:00 +7°C° 0 mm 2 mps 650 mmHg 72%
08:00 +9°C° 0 mm 2 mps 651 mmHg 64%
09:00 +12°C° 0 mm 2 mps 652 mmHg 57%
10:00 +14°C° 0 mm 2 mps 652 mmHg 53%
11:00 +14°C° 0 mm 3 mps 652 mmHg 50%
12:00 +17°C° 0 mm 4 mps 653 mmHg 46%
13:00 +17°C° 0 mm 4 mps 653 mmHg 46%
14:00 +15°C° 0 mm 4 mps 652 mmHg 47%
15:00 +15°C° 0 mm 5 mps 652 mmHg 47%
16:00 +13°C° 0 mm 4 mps 651 mmHg 56%
17:00 +11°C° 0 mm 3 mps 651 mmHg 64%
18:00 +9°C° 0 mm 3 mps 650 mmHg 73%
19:00 +9°C° 0 mm 3 mps 651 mmHg 74%
20:00 +8°C° 0 mm 2 mps 651 mmHg 75%
21:00 +8°C° 0 mm 2 mps 651 mmHg 76%
22:00 +7°C° 0 mm 2 mps 651 mmHg 77%
23:00 +7°C° 0 mm 2 mps 651 mmHg 78%

29 Octubre, Jueves

Tiempo Temperatura Precipitaciones Viento Presión Humedad
00:00 +7°C° 0 mm 2 mps 651 mmHg 78%
01:00 +7°C° 0 mm 1 mps 651 mmHg 79%
02:00 +7°C° 0 mm 1 mps 651 mmHg 80%
03:00 +7°C° 0 mm 1 mps 650 mmHg 81%
04:00 +6°C° 0 mm 1 mps 651 mmHg 82%
05:00 +6°C° 0 mm 1 mps 651 mmHg 82%
06:00 +6°C° 0 mm 1 mps 651 mmHg 83%
07:00 +8°C° 0 mm 1 mps 652 mmHg 76%
08:00 +10°C° 0 mm 1 mps 653 mmHg 69%
09:00 +12°C° 0 mm 1 mps 654 mmHg 61%
10:00 +13°C° 0 mm 2 mps 654 mmHg 58%
11:00 +14°C° 0 mm 2 mps 655 mmHg 54%
12:00 +16°C° 0 mm 3 mps 655 mmHg 50%
13:00 +16°C° 0 mm 3 mps 655 mmHg 50%
14:00 +16°C° 0 mm 3 mps 655 mmHg 49%
15:00 +15°C° 0 mm 4 mps 654 mmHg 49%
16:00 +13°C° 0 mm 3 mps 654 mmHg 61%
17:00 +12°C° 0 mm 2 mps 653 mmHg 73%
18:00 +10°C° 0 mm 1 mps 653 mmHg 85%
19:00 +9°C° 0 mm 1 mps 653 mmHg 88%
20:00 +8°C° 0 mm 1 mps 653 mmHg 90%
21:00 +7°C° 0 mm 0 mps 653 mmHg 92%
22:00 +8°C° 0 mm 1 mps 653 mmHg 92%
23:00 +8°C° 0 mm 1 mps 653 mmHg 91%
Mostrar más

Necesitamos Su Consentimiento

Meteoprog y nuestros Proveedores de Servicios pueden almacenar y acceder a sus datos personales como cookies, identificadores de dispositivo u otras tecnologías similares de su dispositivo y procesar dichos datos para personalizar contenido y anuncios, además de ofrecer funciones de redes sociales y analizar el tráfico.

  • Almacenar y/o acceder a información en su dispositivo

    Se puede almacenar o acceder a cookies, identificadores de dispositivo u otra información de su dispositivo para los fines anteriormente indicados.

  • Anuncios y contenido personalizados, medición de anuncios y contenido, percepciones del público, y desarrollo de productos

    Los anuncios y el contenido pueden personalizarse en base a su perfil. Se pueden añadir más datos para personalizar mejor los anuncios y contenidos. Se puede medir el rendimiento de los anuncios y contenidos. Se puede obtener la percepción sobre el público que ha visto los anuncios y contenidos. Dichos datos pueden usarse para desarrollar o mejorar la experiencia del usuario, sistemas y software.

Al hacer clic en ‘Estoy De Acuerdo’ usted permitirá el uso de las cookies, identificadores de dispositivo, balizas web u otras tecnologías similares indicadas. Su configuración puede cambiarse desde el navegador de su dispositivo.

Para ciertos fines, los intereses legítimos pueden ser considerados por encima del consentimiento. Puede leer más sobre ello en nuestra Política de Privacidad y Cookies.